Regional Weather Roundup
Issued by NWS

Home | Current Version | Previous Version | Graphics & Text | Print | Product List | Glossary On
Versions: 1 2 3 4 5 6 7 8 9 10 11 12 13 14 15 16 17 18 19 20 21 22 23 24 25 26 27 28 29 30 31 32 33 34 35 36 37 38 39 40 41 42 43 44 45 46 47 48 49 50
000
ASUS43 KLMK 291102
RWRKY
KENTUCKY REGIONAL WEATHER ROUNDUP
NATIONAL WEATHER SERVICE LOUISVILLE KY
700 AM EDT SUN MAR 29 2015

NOTE "FAIR" INDICATES FEW OR NO CLOUDS BELOW 12,000 FEET
WITH NO SIGNIFICANT WEATHER AND/OR OBSTRUCTIONS TO VISIBILITY.

KYZ001>023-026-027-061>063-070>075-291200-
WESTERN AND SOUTH CENTRAL KENTUCKY

CITY           SKY/WX    TMP DP  RH WIND       PRES   REMARKS
PADUCAH        CLEAR     32  19  58 SE9       30.26S WCI  24
HENDERSON      CLEAR     21  19  93 SE8       30.29S WCI  12
OWENSBORO      CLEAR     27  19  71 S5        30.30F WCI  22
HOPKINSVILLE   CLEAR     28  17  64 SE5       30.29F WCI  23
BOWLING GREEN  CLEAR     23  19  85 CALM      30.33S
GLASGOW        NOT AVBL
$$

KYZ024-025-028>034-038-045-046-053-291200-
NORTH CENTRAL KENTUCKY

CITY           SKY/WX    TMP DP  RH WIND       PRES   REMARKS
LOUISVILLE/SDF PTCLDY    27  16  63 SE7       30.34S WCI  19
LOUISVILLE/LOU CLEAR     28  14  55 SE3       30.34S
FORT KNOX      CLEAR     24  16  69 E5        30.30S WCI  18
$$

KYZ035>037-039>044-047>052-055>060-089>105-291200-
NORTHEAST KENTUCKY

CITY           SKY/WX    TMP DP  RH WIND       PRES   REMARKS
LEXINGTON      CLEAR     24  13  62 SE9       30.34F WCI  14
COVINGTON      CLEAR     23  12  62 S6        30.34R WCI  16
FRANKFORT      CLEAR     22  14  71 CALM      30.33F
$$

KYZ054-064>069-076>088-106>120-291200-
SOUTHEAST KENTUCKY

CITY           SKY/WX    TMP DP  RH WIND       PRES   REMARKS
JACKSON        CLEAR     24   8  50 SE5       30.34S WCI  18
LONDON         CLEAR     21  15  78 CALM      30.34S
SOMERSET       NOT AVBL
MIDDLESBORO    CLEAR     20  19  93 CALM      30.38R
MONTICELLO     SUNNY     18  14  84 CALM      30.38R
$$




USA.gov is the U.S. government's official web portal to all federal, state and local government web resources and services.